| time (UTC) | temp F | wind direction | speed MPH | gust MPH | rain 1hr in | rain 24hr in | rain mn in | humidity % | barometer mb |
| 20260507195810 | 89 | 320 | 2.0 | 4.0 | 0.00 | 0.00 | 0.00 | 100 | 1013.0 |
| 20260507195310 | 89 | 5 | 1.0 | 5.0 | 0.00 | 0.00 | 0.00 | 100 | 1012.8 |
| 20260507194810 | 89 | 253 | 0.0 | 4.0 | 0.00 | 0.00 | 0.00 | 100 | 1013.0 |
| 20260507194310 | 89 | 337 | 3.0 | 6.0 | 0.00 | 0.00 | 0.00 | 100 | 1013.0 |
| 20260507193810 | 89 | 255 | 1.0 | 6.0 | 0.00 | 0.00 | 0.00 | 100 | 1013.2 |
| 20260507193310 | 90 | 22 | 1.0 | 6.0 | 0.00 | 0.00 | 0.00 | 100 | 1013.3 |
| 20260507192810 | 89 | 143 | 0.0 | 4.0 | 0.00 | 0.00 | 0.00 | 100 | 1013.3 |
| 20260507192310 | 89 | 222 | 0.0 | 8.0 | 0.00 | 0.00 | 0.00 | 100 | 1013.5 |
| 20260507191810 | 89 | 133 | 1.0 | 7.0 | 0.00 | 0.00 | 0.00 | 100 | 1013.6 |
| 20260507191310 | 89 | 147 | 2.0 | 8.0 | 0.00 | 0.00 | 0.00 | 100 | 1013.6 |
| 20260507190810 | 89 | 262 | 5.0 | 6.0 | 0.00 | 0.00 | 0.00 | 100 | 1013.7 |
| 20260507190310 | 89 | 305 | 2.0 | 9.0 | 0.00 | 0.00 | 0.00 | 100 | 1013.7 |
| 20260507185810 | 89 | 19 | 3.0 | 8.0 | 0.00 | 0.00 | 0.00 | 100 | 1013.8 |
| 20260507185310 | 89 | 319 | 1.0 | 8.0 | 0.00 | 0.00 | 0.00 | 100 | 1013.7 |
| 20260507184810 | 89 | 303 | 2.0 | 9.0 | 0.00 | 0.00 | 0.00 | 100 | 1013.8 |
| 20260507184310 | 88 | 42 | 3.0 | 8.0 | 0.00 | 0.00 | 0.00 | 100 | 1013.9 |
| 20260507183810 | 88 | 286 | 6.0 | 7.0 | 0.00 | 0.00 | 0.00 | 100 | 1013.9 |
| 20260507183310 | 88 | 257 | 5.0 | 9.0 | 0.00 | 0.00 | 0.00 | 100 | 1014.0 |
| 20260507182810 | 88 | 289 | 6.0 | 8.0 | 0.00 | 0.00 | 0.00 | 100 | 1014.0 |
| 20260507182310 | 89 | 355 | 4.0 | 8.0 | 0.00 | 0.00 | 0.00 | 100 | 1014.1 |
| 20260507181810 | 89 | 257 | 3.0 | 7.0 | 0.00 | 0.00 | 0.00 | 100 | 1014.2 |
| 20260507181310 | 89 | 255 | 5.0 | 7.0 | 0.00 | 0.00 | 0.00 | 100 | 1014.3 |
| 20260507180810 | 89 | 285 | 3.0 | 9.0 | 0.00 | 0.00 | 0.00 | 100 | 1014.3 |
| 20260507180310 | 89 | 209 | 1.0 | 5.0 | 0.00 | 0.00 | 0.00 | 100 | 1014.3 |
| 20260507175810 | 88 | 217 | 4.0 | 6.0 | 0.00 | 0.00 | 0.00 | 100 | 1014.3 |
| 20260507175310 | 88 | 298 | 3.0 | 7.0 | 0.00 | 0.00 | 0.00 | 100 | 1014.3 |
| 20260507174810 | 88 | 255 | 3.0 | 8.0 | 0.00 | 0.00 | 0.00 | 100 | 1014.4 |
| 20260507174310 | 88 | 222 | 3.0 | 8.0 | 0.00 | 0.00 | 0.00 | 100 | 1014.4 |
| 20260507173810 | 89 | 172 | 2.0 | 7.0 | 0.00 | 0.00 | 0.00 | 100 | 1014.5 |
| 20260507173310 | 89 | 217 | 5.0 | 9.0 | 0.00 | 0.00 | 0.00 | 100 | 1014.4 |
| 20260507172810 | 89 | 322 | 1.0 | 8.0 | 0.00 | 0.00 | 0.00 | 100 | 1014.4 |
| 20260507172310 | 89 | 295 | 3.0 | 8.0 | 0.00 | 0.00 | 0.00 | 100 | 1014.3 |
| 20260507171810 | 88 | 205 | 5.0 | 10.0 | 0.00 | 0.00 | 0.00 | 100 | 1014.5 |
| 20260507171310 | 88 | 344 | 2.0 | 6.0 | 0.00 | 0.00 | 0.00 | 100 | 1014.4 |
| 20260507170810 | 88 | 215 | 0.0 | 12.0 | 0.00 | 0.00 | 0.00 | 100 | 1014.2 |
| 20260507170310 | 87 | 191 | 2.0 | 14.0 | 0.00 | 0.00 | 0.00 | 100 | 1014.2 |
| 20260507165810 | 88 | 202 | 5.0 | 10.0 | 0.00 | 0.00 | 0.00 | 100 | 1014.2 |
| 20260507165310 | 87 | 243 | 3.0 | 11.0 | 0.00 | 0.00 | 0.00 | 100 | 1014.2 |
| 20260507164810 | 88 | 264 | 4.0 | 9.0 | 0.00 | 0.00 | 0.00 | 100 | 1014.2 |
| 20260507164310 | 88 | 157 | 3.0 | 10.0 | 0.00 | 0.00 | 0.00 | 100 | 1014.2 |
| 20260507163810 | 88 | 222 | 4.0 | 10.0 | 0.00 | 0.00 | 0.00 | 100 | 1014.2 |
| 20260507163310 | 88 | 181 | 2.0 | 11.0 | 0.00 | 0.00 | 0.00 | 100 | 1014.3 |
| 20260507162810 | 87 | 247 | 2.0 | 9.0 | 0.00 | 0.00 | 0.00 | 100 | 1014.3 |
| 20260507162310 | 87 | 206 | 2.0 | 13.0 | 0.00 | 0.00 | 0.00 | 100 | 1014.4 |
| 20260507161810 | 87 | 213 | 3.0 | 12.0 | 0.00 | 0.00 | 0.00 | 100 | 1014.4 |
| 20260507161310 | 88 | 229 | 8.0 | 11.0 | 0.00 | 0.00 | 0.00 | 100 | 1014.5 |
| 20260507160810 | 88 | 234 | 3.0 | 10.0 | 0.00 | 0.00 | 0.00 | 100 | 1014.5 |
| 20260507160310 | 88 | 239 | 3.0 | 10.0 | 0.00 | 0.00 | 0.00 | 100 | 1014.6 |
| 20260507155810 | 88 | 264 | 6.0 | 10.0 | 0.00 | 0.00 | 0.00 | 100 | 1014.7 |
| 20260507155310 | 88 | 236 | 1.0 | 12.0 | 0.00 | 0.00 | 0.00 | 100 | 1014.6 |
| 20260507154810 | 88 | 282 | 1.0 | 7.0 | 0.00 | 0.00 | 0.00 | 100 | 1014.7 |
| 20260507154311 | 88 | 277 | 3.0 | 10.0 | 0.00 | 0.00 | 0.00 | 100 | 1014.7 |
| 20260507153810 | 88 | 288 | 0.0 | 11.0 | 0.00 | 0.00 | 0.00 | 100 | 1014.7 |
| 20260507153310 | 88 | 295 | 2.0 | 8.0 | 0.00 | 0.00 | 0.00 | 100 | 1014.7 |
| 20260507152810 | 88 | 261 | 7.0 | 13.0 | 0.00 | 0.00 | 0.00 | 100 | 1014.7 |
| 20260507152310 | 88 | 240 | 2.0 | 13.0 | 0.00 | 0.00 | 0.00 | 100 | 1014.6 |
| 20260507151811 | 88 | 268 | 0.0 | 11.0 | 0.00 | 0.00 | 0.00 | 100 | 1014.7 |
| 20260507151310 | 88 | 265 | 5.0 | 9.0 | 0.00 | 0.00 | 0.00 | 100 | 1014.8 |
| 20260507150810 | 88 | 219 | 1.0 | 10.0 | 0.00 | 0.00 | 0.00 | 100 | 1014.7 |
| 20260507150310 | 87 | 247 | 4.0 | 12.0 | 0.00 | 0.00 | 0.00 | 100 | 1014.6 |
| 20260507145810 | 87 | 244 | 3.0 | 8.0 | 0.00 | 0.00 | 0.00 | 100 | 1014.6 |
| 20260507145310 | 87 | 171 | 3.0 | 9.0 | 0.00 | 0.00 | 0.00 | 100 | 1014.7 |
| 20260507144810 | 87 | 151 | 3.0 | 7.0 | 0.00 | 0.00 | 0.00 | 100 | 1014.6 |
| 20260507144310 | 87 | 54 | 1.0 | 6.0 | 0.00 | 0.00 | 0.00 | 100 | 1014.6 |
| 20260507143811 | 87 | 157 | 0.0 | 8.0 | 0.00 | 0.00 | 0.00 | 100 | 1014.6 |
| 20260507143310 | 87 | 296 | 2.0 | 6.0 | 0.00 | 0.00 | 0.00 | 100 | 1014.5 |
| 20260507142810 | 87 | 237 | 0.0 | 10.0 | 0.00 | 0.00 | 0.00 | 100 | 1014.5 |
| 20260507142310 | 87 | 277 | 3.0 | 10.0 | 0.00 | 0.00 | 0.00 | 100 | 1014.5 |
| 20260507141810 | 87 | 277 | 2.0 | 8.0 | 0.00 | 0.00 | 0.00 | 100 | 1014.5 |
| 20260507141310 | 87 | 212 | 4.0 | 8.0 | 0.00 | 0.00 | 0.00 | 100 | 1014.4 |
| 20260507140811 | 86 | 175 | 3.0 | 9.0 | 0.00 | 0.00 | 0.00 | 100 | 1014.3 |
| 20260507140311 | 86 | 243 | 2.0 | 7.0 | 0.00 | 0.00 | 0.00 | 100 | 1014.4 |
| 20260507135811 | 86 | 264 | 7.0 | 7.0 | 0.00 | 0.00 | 0.00 | 100 | 1014.4 |
| 20260507135311 | 86 | 299 | 6.0 | 9.0 | 0.00 | 0.00 | 0.00 | 100 | 1014.4 |
| 20260507134811 | 86 | 223 | 4.0 | 7.0 | 0.00 | 0.00 | 0.00 | 100 | 1014.5 |
| 20260507134311 | 85 | 226 | 5.0 | 6.0 | 0.00 | 0.00 | 0.00 | 100 | 1014.5 |
| 20260507133811 | 85 | 104 | 1.0 | 5.0 | 0.00 | 0.00 | 0.00 | 100 | 1014.6 |
| 20260507133311 | 84 | 236 | 1.0 | 6.0 | 0.00 | 0.00 | 0.00 | 100 | 1014.5 |
| 20260507132811 | 84 | 309 | 0.0 | 5.0 | 0.00 | 0.00 | 0.00 | 100 | 1014.5 |
| 20260507132311 | 83 | 275 | 0.0 | 7.0 | 0.00 | 0.00 | 0.00 | 100 | 1014.3 |
| 20260507131811 | 83 | 315 | 3.0 | 5.0 | 0.00 | 0.00 | 0.00 | 100 | 1014.4 |
| 20260507131311 | 83 | 212 | 4.0 | 6.0 | 0.00 | 0.00 | 0.00 | 100 | 1014.3 |
| 20260507130811 | 82 | 205 | 3.0 | 6.0 | 0.00 | 0.00 | 0.00 | 100 | 1014.2 |
| 20260507130311 | 82 | 232 | 1.0 | 10.0 | 0.00 | 0.00 | 0.00 | 100 | 1014.1 |
| 20260507125811 | 82 | 215 | 2.0 | 6.0 | 0.00 | 0.00 | 0.00 | 100 | 1014.0 |
| 20260507125311 | 82 | 253 | 0.0 | 5.0 | 0.00 | 0.00 | 0.00 | 100 | 1014.0 |
| 20260507124811 | 82 | 216 | 1.0 | 6.0 | 0.00 | 0.00 | 0.00 | 100 | 1013.8 |
| 20260507124311 | 81 | 202 | 5.0 | 6.0 | 0.00 | 0.00 | 0.00 | 100 | 1013.8 |
| 20260507123811 | 81 | 172 | 0.0 | 7.0 | 0.00 | 0.00 | 0.00 | 100 | 1013.8 |
| 20260507123311 | 81 | 203 | 2.0 | 7.0 | 0.00 | 0.00 | 0.00 | 100 | 1013.7 |
| 20260507122811 | 81 | 206 | 0.0 | 6.0 | 0.00 | 0.00 | 0.00 | 100 | 1013.6 |
| 20260507122311 | 81 | 192 | 1.0 | 5.0 | 0.00 | 0.00 | 0.00 | 100 | 1013.7 |
| 20260507121811 | 81 | 202 | 0.0 | 6.0 | 0.00 | 0.00 | 0.00 | 100 | 1013.6 |
| 20260507121311 | 81 | 199 | 0.0 | 6.0 | 0.00 | 0.00 | 0.00 | 100 | 1013.6 |
| 20260507120811 | 80 | 202 | 1.0 | 3.0 | 0.00 | 0.00 | 0.00 | 100 | 1013.6 |
| 20260507120311 | 80 | 217 | 1.0 | 2.0 | 0.00 | 0.00 | 0.00 | 100 | 1013.6 |
| 20260507115811 | 80 | 164 | 0.0 | 0.0 | 0.00 | 0.00 | 0.00 | 100 | 1013.7 |
| 20260507115311 | 80 | 164 | 0.0 | 0.0 | 0.00 | 0.00 | 0.00 | 100 | 1013.8 |
| 20260507114811 | 80 | 164 | 0.0 | 0.0 | 0.00 | 0.00 | 0.00 | 100 | 1013.7 |
| 20260507114311 | 80 | 164 | 0.0 | 0.0 | 0.00 | 0.00 | 0.00 | 100 | 1013.6 |
| 20260507113811 | 80 | 164 | 0.0 | 2.0 | 0.00 | 0.00 | 0.00 | 100 | 1013.6 |
| 20260507113311 | 79 | 265 | 0.0 | 0.0 | 0.00 | 0.00 | 0.00 | 100 | 1013.6 |
| 20260507112811 | 79 | 265 | 0.0 | 0.0 | 0.00 | 0.00 | 0.00 | 100 | 1013.6 |
| 20260507112311 | 79 | 265 | 0.0 | 0.0 | 0.00 | 0.00 | 0.00 | 100 | 1013.6 |
| 20260507111811 | 79 | 265 | 0.0 | 0.0 | 0.00 | 0.00 | 0.00 | 100 | 1013.5 |
| 20260507111311 | 79 | 265 | 0.0 | 0.0 | 0.00 | 0.00 | 0.00 | 100 | 1013.3 |
| 20260507110811 | 79 | 265 | 0.0 | 0.0 | 0.00 | 0.00 | 0.00 | 100 | 1013.1 |
| 20260507110311 | 79 | 265 | 0.0 | 0.0 | 0.00 | 0.00 | 0.00 | 100 | 1013.4 |
| 20260507105811 | 79 | 265 | 0.0 | 0.0 | 0.00 | 0.00 | 0.00 | 100 | 1013.3 |
| 20260507105311 | 79 | 265 | 0.0 | 0.0 | 0.00 | 0.00 | 0.00 | 100 | 1013.3 |
| 20260507104811 | 79 | 265 | 0.0 | 0.0 | 0.00 | 0.00 | 0.00 | 100 | 1013.3 |
| 20260507104311 | 79 | 265 | 0.0 | 0.0 | 0.00 | 0.00 | 0.00 | 100 | 1013.3 |
| 20260507103811 | 79 | 265 | 0.0 | 0.0 | 0.00 | 0.00 | 0.00 | 100 | 1013.2 |
| 20260507103311 | 79 | 265 | 0.0 | 0.0 | 0.00 | 0.00 | 0.00 | 100 | 1013.3 |
| 20260507102811 | 79 | 265 | 0.0 | 0.0 | 0.00 | 0.00 | 0.00 | 100 | 1013.2 |
| 20260507102311 | 79 | 265 | 0.0 | 0.0 | 0.00 | 0.00 | 0.00 | 100 | 1013.1 |
| 20260507101811 | 79 | 265 | 0.0 | 0.0 | 0.00 | 0.00 | 0.00 | 100 | 1013.1 |
| 20260507101311 | 79 | 265 | 0.0 | 0.0 | 0.00 | 0.00 | 0.00 | 100 | 1013.1 |
| 20260507100811 | 79 | 265 | 0.0 | 0.0 | 0.00 | 0.00 | 0.00 | 100 | 1013.0 |
| 20260507100311 | 79 | 265 | 0.0 | 0.0 | 0.00 | 0.00 | 0.00 | 100 | 1012.9 |
| 20260507095811 | 79 | 265 | 0.0 | 0.0 | 0.00 | 0.00 | 0.00 | 100 | 1012.9 |
| 20260507095311 | 79 | 265 | 0.0 | 0.0 | 0.00 | 0.00 | 0.00 | 100 | 1013.0 |
| 20260507094811 | 79 | 265 | 0.0 | 0.0 | 0.00 | 0.00 | 0.00 | 100 | 1012.9 |
| 20260507094311 | 79 | 265 | 0.0 | 0.0 | 0.00 | 0.00 | 0.00 | 100 | 1012.9 |
| 20260507093811 | 79 | 265 | 0.0 | 0.0 | 0.00 | 0.00 | 0.00 | 100 | 1012.9 |
| 20260507093311 | 79 | 265 | 0.0 | 0.0 | 0.00 | 0.00 | 0.00 | 100 | 1012.9 |
| 20260507092811 | 79 | 265 | 0.0 | 0.0 | 0.00 | 0.00 | 0.00 | 100 | 1012.8 |
| 20260507092311 | 79 | 265 | 0.0 | 0.0 | 0.00 | 0.00 | 0.00 | 100 | 1012.8 |
| 20260507091811 | 79 | 265 | 0.0 | 0.0 | 0.00 | 0.00 | 0.00 | 100 | 1012.7 |
| 20260507091312 | 79 | 265 | 0.0 | 0.0 | 0.00 | 0.00 | 0.00 | 100 | 1012.7 |
| 20260507090811 | 79 | 265 | 0.0 | 0.0 | 0.00 | 0.00 | 0.00 | 100 | 1012.8 |
| 20260507090311 | 79 | 265 | 0.0 | 0.0 | 0.00 | 0.00 | 0.00 | 100 | 1012.8 |
| 20260507085811 | 79 | 265 | 0.0 | 0.0 | 0.00 | 0.00 | 0.00 | 100 | 1012.7 |
| 20260507085311 | 79 | 265 | 0.0 | 0.0 | 0.00 | 0.00 | 0.00 | 100 | 1012.6 |
| 20260507084811 | 79 | 265 | 0.0 | 0.0 | 0.00 | 0.00 | 0.00 | 100 | 1012.7 |
| 20260507084311 | 80 | 265 | 0.0 | 0.0 | 0.00 | 0.00 | 0.00 | 100 | 1012.9 |
| 20260507083811 | 80 | 265 | 0.0 | 0.0 | 0.00 | 0.00 | 0.00 | 100 | 1013.0 |
| 20260507083311 | 79 | 265 | 0.0 | 0.0 | 0.00 | 0.00 | 0.00 | 100 | 1013.0 |
| 20260507082811 | 79 | 265 | 0.0 | 0.0 | 0.00 | 0.00 | 0.00 | 100 | 1013.0 |
| 20260507082311 | 79 | 265 | 0.0 | 0.0 | 0.00 | 0.00 | 0.00 | 100 | 1013.1 |
| 20260507081811 | 79 | 265 | 0.0 | 0.0 | 0.00 | 0.00 | 0.00 | 100 | 1013.0 |
| 20260507081311 | 79 | 265 | 0.0 | 0.0 | 0.00 | 0.00 | 0.00 | 100 | 1012.8 |
| 20260507080811 | 80 | 265 | 0.0 | 0.0 | 0.00 | 0.00 | 0.00 | 100 | 1012.8 |
| 20260507080311 | 80 | 265 | 0.0 | 0.0 | 0.00 | 0.00 | 0.00 | 100 | 1012.7 |
| 20260507075811 | 80 | 265 | 0.0 | 0.0 | 0.00 | 0.00 | 0.00 | 100 | 1012.8 |
| 20260507075311 | 80 | 265 | 0.0 | 0.0 | 0.00 | 0.00 | 0.00 | 100 | 1012.8 |
| 20260507074908 | 80 | 265 | 0.0 | 0.0 | 0.00 | 0.00 | 0.00 | 100 | 1013.2 |
| 20260507074811 | 80 | 265 | 0.0 | 0.0 | 0.00 | 0.00 | 0.00 | 100 | 1012.5 |
| 20260507074311 | 80 | 265 | 0.0 | 0.0 | 0.00 | 0.00 | 0.00 | 100 | 1012.6 |
| 20260507073811 | 80 | 265 | 0.0 | 0.0 | 0.00 | 0.00 | 0.00 | 100 | 1012.6 |
| 20260507073311 | 80 | 265 | 0.0 | 0.0 | 0.00 | 0.00 | 0.00 | 100 | 1012.7 |
| 20260507072811 | 80 | 265 | 0.0 | 0.0 | 0.00 | 0.00 | 0.00 | 100 | 1012.7 |
| 20260507072311 | 80 | 265 | 0.0 | 0.0 | 0.00 | 0.00 | 0.00 | 100 | 1012.8 |
| 20260507071811 | 80 | 265 | 0.0 | 0.0 | 0.00 | 0.00 | 0.00 | 100 | 1012.9 |
| 20260507071311 | 80 | 265 | 0.0 | 0.0 | 0.00 | 0.00 | 0.00 | 100 | 1013.0 |
| 20260507070811 | 80 | 265 | 0.0 | 0.0 | 0.00 | 0.00 | 0.00 | 100 | 1013.1 |
| 20260507070311 | 80 | 265 | 0.0 | 0.0 | 0.00 | 0.00 | 0.00 | 100 | 1013.1 |
| 20260507065811 | 80 | 265 | 0.0 | 0.0 | 0.00 | 0.00 | 0.00 | 100 | 1013.0 |
| 20260507065311 | 80 | 265 | 0.0 | 0.0 | 0.00 | 0.00 | 0.00 | 100 | 1013.0 |
| 20260507064811 | 80 | 265 | 0.0 | 0.0 | 0.00 | 0.00 | 0.00 | 100 | 1013.2 |
| 20260507064311 | 80 | 265 | 0.0 | 0.0 | 0.00 | 0.00 | 0.00 | 100 | 1013.2 |
| 20260507063811 | 80 | 265 | 0.0 | 0.0 | 0.00 | 0.00 | 0.00 | 100 | 1013.0 |
| 20260507063311 | 80 | 265 | 0.0 | 0.0 | 0.00 | 0.00 | 0.00 | 100 | 1013.1 |
| 20260507062811 | 80 | 265 | 0.0 | 0.0 | 0.00 | 0.00 | 0.00 | 100 | 1013.4 |
| 20260507062311 | 80 | 265 | 0.0 | 0.0 | 0.00 | 0.00 | 0.00 | 100 | 1013.3 |
| 20260507061811 | 80 | 265 | 0.0 | 0.0 | 0.00 | 0.00 | 0.00 | 100 | 1013.4 |
| 20260507061713 | 80 | 265 | 0.0 | 0.0 | 0.00 | 0.00 | 0.00 | 100 | 1013.5 |
| 20260507061311 | 80 | 265 | 0.0 | 0.0 | 0.00 | 0.00 | 0.00 | 100 | 1013.5 |
| 20260507061157 | 80 | 265 | 0.0 | 0.0 | 0.00 | 0.00 | 0.00 | 100 | 1013.6 |
| 20260507060811 | 80 | 265 | 0.0 | 0.0 | 0.00 | 0.00 | 0.00 | 100 | 1013.6 |
| 20260507060311 | 80 | 265 | 0.0 | 0.0 | 0.00 | 0.00 | 0.00 | 100 | 1013.6 |
| 20260507055811 | 80 | 265 | 0.0 | 0.0 | 0.00 | 0.00 | 0.00 | 100 | 1013.6 |
| 20260507055311 | 81 | 265 | 0.0 | 0.0 | 0.00 | 0.00 | 0.00 | 100 | 1013.6 |
| 20260507054811 | 80 | 265 | 0.0 | 0.0 | 0.00 | 0.00 | 0.00 | 100 | 1013.6 |
| 20260507054311 | 80 | 265 | 0.0 | 0.0 | 0.00 | 0.00 | 0.00 | 100 | 1013.7 |
| 20260507053811 | 80 | 265 | 0.0 | 0.0 | 0.00 | 0.00 | 0.00 | 100 | 1013.8 |
| 20260507053311 | 80 | 265 | 0.0 | 0.0 | 0.00 | 0.00 | 0.00 | 100 | 1013.9 |
| 20260507052811 | 80 | 265 | 0.0 | 0.0 | 0.00 | 0.00 | 0.00 | 100 | 1013.9 |
| 20260507052311 | 80 | 265 | 0.0 | 0.0 | 0.00 | 0.00 | 0.00 | 100 | 1013.8 |
| 20260507051811 | 80 | 265 | 0.0 | 0.0 | 0.00 | 0.00 | 0.00 | 100 | 1013.9 |
| 20260507051311 | 81 | 265 | 0.0 | 0.0 | 0.00 | 0.00 | 0.00 | 100 | 1013.9 |
| 20260507050811 | 81 | 265 | 0.0 | 0.0 | 0.00 | 0.00 | 0.00 | 100 | 1014.0 |
| 20260507050311 | 81 | 265 | 0.0 | 0.0 | 0.00 | 0.00 | 0.00 | 100 | 1014.0 |
| 20260507045811 | 81 | 265 | 0.0 | 0.0 | 0.00 | 0.00 | 0.00 | 100 | 1014.1 |
| 20260507045311 | 81 | 265 | 0.0 | 0.0 | 0.00 | 0.00 | 0.00 | 100 | 1014.2 |
| 20260507044811 | 81 | 265 | 0.0 | 0.0 | 0.00 | 0.00 | 0.00 | 100 | 1014.1 |
| 20260507044311 | 81 | 265 | 0.0 | 0.0 | 0.00 | 0.00 | 0.00 | 100 | 1014.0 |
| 20260507043811 | 81 | 265 | 0.0 | 0.0 | 0.00 | 0.00 | 0.00 | 100 | 1014.3 |
| 20260507043311 | 81 | 265 | 0.0 | 0.0 | 0.00 | 0.00 | 0.00 | 100 | 1014.4 |
| 20260507042811 | 81 | 265 | 0.0 | 0.0 | 0.00 | 0.00 | 0.00 | 100 | 1014.3 |
| 20260507042311 | 81 | 265 | 0.0 | 0.0 | 0.00 | 0.00 | 0.00 | 100 | 1014.6 |
| 20260507041939 | 81 | 265 | 0.0 | 0.0 | 0.00 | 0.00 | 0.00 | 100 | 1014.3 |
| 20260507041811 | 81 | 265 | 0.0 | 0.0 | 0.00 | 0.00 | 0.00 | 100 | 1014.6 |
| 20260507041311 | 81 | 265 | 0.0 | 0.0 | 0.00 | 0.00 | 0.00 | 100 | 1014.6 |
| 20260507040811 | 81 | 265 | 0.0 | 0.0 | 0.00 | 0.00 | 0.00 | 100 | 1014.6 |
| 20260507040311 | 81 | 265 | 0.0 | 0.0 | 0.00 | 0.00 | 0.00 | 100 | 1014.6 |
| 20260507035811 | 81 | 265 | 0.0 | 0.0 | 0.00 | 0.00 | 0.00 | 100 | 1014.4 |
| 20260507035311 | 81 | 265 | 0.0 | 0.0 | 0.00 | 0.00 | 0.00 | 100 | 1014.5 |
| 20260507035030 | 81 | 265 | 0.0 | 0.0 | 0.00 | 0.00 | 0.00 | 100 | 1014.5 |
| 20260507034811 | 81 | 265 | 0.0 | 0.0 | 0.00 | 0.00 | 0.00 | 100 | 1014.5 |
| 20260507034311 | 81 | 265 | 0.0 | 0.0 | 0.00 | 0.00 | 0.00 | 100 | 1014.4 |
| 20260507033811 | 81 | 265 | 0.0 | 0.0 | 0.00 | 0.00 | 0.00 | 100 | 1014.3 |
| 20260507033311 | 81 | 265 | 0.0 | 0.0 | 0.00 | 0.00 | 0.00 | 100 | 1014.3 |
| 20260507032811 | 81 | 265 | 0.0 | 0.0 | 0.00 | 0.00 | 0.00 | 100 | 1014.5 |
| 20260507032312 | 82 | 265 | 0.0 | 0.0 | 0.00 | 0.00 | 0.00 | 100 | 1014.4 |
| 20260507031811 | 82 | 265 | 0.0 | 0.0 | 0.00 | 0.00 | 0.00 | 100 | 1014.4 |
| 20260507031311 | 82 | 265 | 0.0 | 0.0 | 0.00 | 0.00 | 0.00 | 100 | 1014.3 |
| 20260507030811 | 82 | 265 | 0.0 | 0.0 | 0.00 | 0.00 | 0.00 | 100 | 1014.2 |
| 20260507030312 | 82 | 265 | 0.0 | 0.0 | 0.00 | 0.00 | 0.00 | 100 | 1014.1 |
| 20260507025811 | 82 | 265 | 0.0 | 0.0 | 0.00 | 0.00 | 0.00 | 100 | 1014.2 |
| 20260507025312 | 82 | 265 | 0.0 | 0.0 | 0.00 | 0.00 | 0.00 | 100 | 1014.1 |
| 20260507024812 | 82 | 265 | 0.0 | 0.0 | 0.00 | 0.00 | 0.00 | 100 | 1014.1 |
| 20260507024312 | 82 | 265 | 0.0 | 0.0 | 0.00 | 0.00 | 0.00 | 100 | 1014.1 |
| 20260507023812 | 82 | 265 | 0.0 | 0.0 | 0.00 | 0.00 | 0.00 | 100 | 1014.2 |
| 20260507023312 | 82 | 265 | 0.0 | 0.0 | 0.00 | 0.00 | 0.00 | 100 | 1014.3 |
| 20260507022812 | 82 | 265 | 0.0 | 0.0 | 0.00 | 0.00 | 0.00 | 100 | 1014.1 |
| 20260507022312 | 82 | 265 | 0.0 | 0.0 | 0.00 | 0.00 | 0.00 | 100 | 1014.1 |
| 20260507022130 | 83 | 265 | 0.0 | 0.0 | 0.00 | 0.00 | 0.00 | 100 | 1014.1 |
| 20260507021812 | 83 | 265 | 0.0 | 0.0 | 0.00 | 0.00 | 0.00 | 100 | 1014.0 |
| 20260507021312 | 82 | 265 | 0.0 | 0.0 | 0.00 | 0.00 | 0.00 | 100 | 1014.0 |
| 20260507020812 | 83 | 265 | 0.0 | 0.0 | 0.00 | 0.00 | 0.00 | 100 | 1014.1 |
| 20260507020312 | 83 | 265 | 0.0 | 0.0 | 0.00 | 0.00 | 0.00 | 100 | 1014.0 |
| 20260507015914 | 83 | 265 | 0.0 | 0.0 | 0.00 | 0.00 | 0.00 | 100 | 1014.0 |
| 20260507015812 | 83 | 265 | 0.0 | 0.0 | 0.00 | 0.00 | 0.00 | 100 | 1014.1 |
| 20260507015312 | 83 | 265 | 0.0 | 0.0 | 0.00 | 0.00 | 0.00 | 100 | 1014.0 |
| 20260507014812 | 83 | 265 | 0.0 | 0.0 | 0.00 | 0.00 | 0.00 | 100 | 1014.0 |
| 20260507014312 | 83 | 265 | 0.0 | 0.0 | 0.00 | 0.00 | 0.00 | 100 | 1014.1 |
| 20260507013812 | 83 | 265 | 0.0 | 0.0 | 0.00 | 0.00 | 0.00 | 100 | 1014.0 |
| 20260507013312 | 83 | 265 | 0.0 | 0.0 | 0.00 | 0.00 | 0.00 | 100 | 1014.0 |
| 20260507012812 | 83 | 265 | 0.0 | 0.0 | 0.00 | 0.00 | 0.00 | 100 | 1013.9 |
| 20260507012312 | 83 | 265 | 0.0 | 0.0 | 0.00 | 0.00 | 0.00 | 100 | 1013.9 |
| 20260507011812 | 83 | 265 | 0.0 | 5.0 | 0.00 | 0.00 | 0.00 | 100 | 1014.1 |
| 20260507011312 | 83 | 7 | 0.0 | 4.0 | 0.00 | 0.00 | 0.00 | 100 | 1014.1 |
| 20260507010812 | 83 | 300 | 0.0 | 1.0 | 0.00 | 0.00 | 0.00 | 100 | 1013.5 |
| 20260507010312 | 83 | 313 | 0.0 | 6.0 | 0.00 | 0.00 | 0.00 | 100 | 1011.6 |
| 20260507005812 | 83 | 305 | 0.0 | 0.0 | 0.00 | 0.00 | 0.00 | 100 | 1011.7 |
| 20260507005312 | 83 | 305 | 0.0 | 1.0 | 0.00 | 0.00 | 0.00 | 100 | 1011.9 |
| 20260507004812 | 83 | 15 | 0.0 | 4.0 | 0.00 | 0.00 | 0.00 | 100 | 1011.2 |
| 20260507004312 | 83 | 237 | 0.0 | 3.0 | 0.00 | 0.00 | 0.00 | 100 | 1011.3 |
| 20260507003812 | 83 | 295 | 3.0 | 5.0 | 0.00 | 0.00 | 0.00 | 100 | 1011.1 |
| 20260507003312 | 83 | 347 | 0.0 | 5.0 | 0.00 | 0.00 | 0.00 | 100 | 1012.4 |
| 20260507002812 | 83 | 357 | 2.0 | 5.0 | 0.00 | 0.00 | 0.00 | 100 | 1013.5 |
| 20260507002312 | 83 | 326 | 0.0 | 5.0 | 0.00 | 0.00 | 0.00 | 100 | 1013.5 |
| 20260507001812 | 83 | 312 | 1.0 | 4.0 | 0.00 | 0.00 | 0.00 | 100 | 1013.8 |
| 20260507001312 | 83 | 274 | 0.0 | 7.0 | 0.00 | 0.00 | 0.00 | 100 | 1013.8 |
| 20260507000812 | 84 | 305 | 0.0 | 4.0 | 0.00 | 0.00 | 0.00 | 100 | 1013.7 |
| 20260507000314 | 84 | 309 | 0.0 | 5.0 | 0.00 | 0.00 | 0.00 | 100 | 1013.6 |
| 20260506235812 | 84 | 4 | 3.0 | 5.0 | 0.00 | 0.00 | 0.00 | 100 | 1013.5 |
| 20260506235312 | 84 | 350 | 0.0 | 6.0 | 0.00 | 0.00 | 0.00 | 100 | 1013.7 |
| 20260506234812 | 84 | 350 | 4.0 | 6.0 | 0.00 | 0.00 | 0.00 | 100 | 1013.6 |
| 20260506234312 | 84 | 330 | 3.0 | 6.0 | 0.00 | 0.00 | 0.00 | 100 | 1013.4 |
| 20260506233812 | 84 | 258 | 0.0 | 4.0 | 0.00 | 0.00 | 0.00 | 100 | 1013.8 |
| 20260506233312 | 84 | 315 | 2.0 | 6.0 | 0.00 | 0.00 | 0.00 | 100 | 1013.7 |
| 20260506232812 | 85 | 344 | 4.0 | 8.0 | 0.00 | 0.00 | 0.00 | 100 | 1013.8 |
| 20260506232312 | 85 | 316 | 4.0 | 7.0 | 0.00 | 0.00 | 0.00 | 100 | 1013.7 |
| 20260506231812 | 85 | 274 | 5.0 | 5.0 | 0.00 | 0.00 | 0.00 | 100 | 1013.7 |
| 20260506231312 | 85 | 28 | 1.0 | 7.0 | 0.00 | 0.00 | 0.00 | 100 | 1013.8 |
| 20260506230812 | 86 | 277 | 2.0 | 8.0 | 0.00 | 0.00 | 0.00 | 100 | 1013.7 |
| 20260506230312 | 86 | 331 | 8.0 | 8.0 | 0.00 | 0.00 | 0.00 | 100 | 1013.7 |
| 20260506225812 | 86 | 296 | 2.0 | 4.0 | 0.00 | 0.00 | 0.00 | 100 | 1013.6 |
| 20260506225312 | 86 | 225 | 0.0 | 7.0 | 0.00 | 0.00 | 0.00 | 100 | 1013.6 |
| 20260506224812 | 86 | 355 | 2.0 | 9.0 | 0.00 | 0.00 | 0.00 | 100 | 1013.6 |
| 20260506224312 | 86 | 98 | 1.0 | 4.0 | 0.00 | 0.00 | 0.00 | 100 | 1013.6 |
| 20260506223812 | 86 | 352 | 2.0 | 8.0 | 0.00 | 0.00 | 0.00 | 100 | 1013.6 |
| 20260506223312 | 87 | 281 | 6.0 | 9.0 | 0.00 | 0.00 | 0.00 | 100 | 1013.4 |
| 20260506222812 | 87 | 299 | 1.0 | 5.0 | 0.00 | 0.00 | 0.00 | 100 | 1013.5 |
| 20260506222312 | 87 | 282 | 1.0 | 8.0 | 0.00 | 0.00 | 0.00 | 100 | 1013.3 |
| 20260506221812 | 87 | 288 | 0.0 | 6.0 | 0.00 | 0.00 | 0.00 | 100 | 1013.6 |
| 20260506221312 | 87 | 264 | 4.0 | 7.0 | 0.00 | 0.00 | 0.00 | 100 | 1013.7 |
| 20260506220812 | 87 | 300 | 3.0 | 6.0 | 0.00 | 0.00 | 0.00 | 100 | 1013.8 |
| 20260506220312 | 87 | 326 | 3.0 | 9.0 | 0.00 | 0.00 | 0.00 | 100 | 1013.7 |
| 20260506215812 | 87 | 274 | 2.0 | 8.0 | 0.00 | 0.00 | 0.00 | 100 | 1013.8 |
| 20260506215312 | 87 | 326 | 5.0 | 8.0 | 0.00 | 0.00 | 0.00 | 100 | 1013.8 |
| 20260506214812 | 87 | 275 | 1.0 | 8.0 | 0.00 | 0.00 | 0.00 | 100 | 1013.8 |
| 20260506214312 | 87 | 291 | 6.0 | 9.0 | 0.00 | 0.00 | 0.00 | 100 | 1013.8 |
| 20260506213812 | 87 | 292 | 3.0 | 8.0 | 0.00 | 0.00 | 0.00 | 100 | 1013.8 |
| 20260506213312 | 87 | 307 | 5.0 | 8.0 | 0.00 | 0.00 | 0.00 | 100 | 1013.8 |
| 20260506212812 | 87 | 354 | 2.0 | 8.0 | 0.00 | 0.00 | 0.00 | 100 | 1013.9 |
| 20260506212312 | 87 | 340 | 5.0 | 9.0 | 0.00 | 0.00 | 0.00 | 100 | 1013.9 |
| 20260506211812 | 87 | 337 | 5.0 | 9.0 | 0.00 | 0.00 | 0.00 | 100 | 1013.9 |
| 20260506211312 | 87 | 1 | 3.0 | 11.0 | 0.00 | 0.00 | 0.00 | 100 | 1013.9 |
| 20260506210812 | 88 | 230 | 1.0 | 8.0 | 0.00 | 0.00 | 0.00 | 100 | 1013.8 |
| 20260506210312 | 88 | 15 | 3.0 | 8.0 | 0.00 | 0.00 | 0.00 | 100 | 1013.8 |
| 20260506205812 | 88 | 320 | 2.0 | 7.0 | 0.00 | 0.00 | 0.00 | 100 | 1013.7 |
| 20260506205312 | 88 | 300 | 2.0 | 8.0 | 0.00 | 0.00 | 0.00 | 100 | 1013.7 |
| 20260506204812 | 88 | 305 | 5.0 | 6.0 | 0.00 | 0.00 | 0.00 | 100 | 1013.7 |
| 20260506204312 | 89 | 250 | 3.0 | 10.0 | 0.00 | 0.00 | 0.00 | 100 | 1013.7 |
| 20260506203812 | 89 | 123 | 2.0 | 8.0 | 0.00 | 0.00 | 0.00 | 100 | 1013.7 |
| 20260506203312 | 89 | 310 | 3.0 | 7.0 | 0.00 | 0.00 | 0.00 | 100 | 1013.6 |
| 20260506202812 | 89 | 279 | 1.0 | 5.0 | 0.00 | 0.00 | 0.00 | 100 | 1013.6 |
| 20260506202312 | 89 | 300 | 1.0 | 6.0 | 0.00 | 0.00 | 0.00 | 100 | 1013.7 |
| 20260506201812 | 89 | 272 | 0.0 | 6.0 | 0.00 | 0.00 | 0.00 | 100 | 1013.7 |
| 20260506201312 | 89 | 319 | 2.0 | 5.0 | 0.00 | 0.00 | 0.00 | 100 | 1013.8 |
| 20260506200812 | 89 | 312 | 0.0 | 7.0 | 0.00 | 0.00 | 0.00 | 100 | 1013.8 |
| 20260506200312 | 89 | 213 | 3.0 | 9.0 | 0.00 | 0.00 | 0.00 | 100 | 1013.8 |